This is the latest recevied weather packets stored in our database for station/object VK4TOM-13. If no packets are shown the sender has not sent any weather packets the latest 10 day(s).
| Time | Temp. | Humidity | Pressure | Rain* | Wind** | Luminosity | Snow |
|---|---|---|---|---|---|---|---|
| 1787991931 | 20.56° C | 70% | 1023.6 hPa | 0 mm | - | - | - |
| 1787991330 | 20.56° C | 70% | 1023.5 hPa | 0 mm | - | - | - |
| 1787990728 | 21.11° C | 70% | 1023.4 hPa | 0 mm | - | - | - |
| 1787990127 | 21.11° C | 70% | 1023.2 hPa | 0 mm | - | - | - |
| 1787989947 | 21.11° C | 70% | 1023.2 hPa | 0 mm | - | - | - |
| 1787989436 | 21.11° C | 70% | 1023.1 hPa | 0 mm | - | - | - |
| 1787988836 | 21.67° C | 70% | 1023 hPa | 0 mm | - | - | - |
| 1787988633 | 21.67° C | 70% | 1023 hPa | 0 mm | - | - | - |
| 1787988033 | 22.22° C | 70% | 1022.8 hPa | 0 mm | - | - | - |
| 1787987742 | 22.78° C | 70% | 1022.8 hPa | 0 mm | - | - | - |
| 1787987545 | 22.78° C | 70% | 1022.7 hPa | 0 mm | - | - | - |
| 1787987300 | 22.78° C | 70% | 1022.7 hPa | 0 mm | - | - | - |
| 1787987090 | 22.78° C | 70% | 1022.7 hPa | 0 mm | - | - | - |
| 1787986489 | 23.33° C | 70% | 1022.7 hPa | 0 mm | - | - | - |
| 1787985887 | 23.89° C | 70% | 1022.6 hPa | 0 mm | - | - | - |
| 1787985287 | 24.44° C | 70% | 1022.5 hPa | 0 mm | - | - | - |
| 1787984693 | 24.44° C | 59% | 1022.5 hPa | 0 mm | - | - | - |
| 1787984085 | 25° C | 52% | 1022.4 hPa | 0 mm | - | - | - |
| 1787983483 | 26.11° C | 47% | 1022.4 hPa | 0 mm | - | - | - |
| 1787982883 | 27.22° C | 45% | 1022.4 hPa | 0 mm | - | - | - |
| 1787982296 | 27.22° C | 46% | 1022.4 hPa | 0 mm | - | - | - |
| 1787981695 | 27.78° C | 47% | 1022.2 hPa | 0 mm | - | - | - |
| 1787981100 | 27.78° C | 46% | 1022.4 hPa | 0 mm | - | - | - |
| 1787980493 | 27.78° C | 48% | 1022.4 hPa | 0 mm | - | - | - |
| 1787979897 | 27.78° C | 52% | 1022.4 hPa | 0 mm | - | - | - |
* Rain since midnight (hover to see other rain measurements)
** Current wind speed in m/s (hover to see current wind gust speed)